Grand Rapids, MI

10:02 PM EST on January 22, 2018 (GMT -0500)
Gerald R. Ford International

Weather History for KGRR - February, 2013

Change the Weather History Date:

Wednesday, February 27, 2013

  Actual Average Record
Temperature  
Mean Temperature 35 °F 30 °F  
Max Temperature 36 °F 37 °F 67 °F (1976)
Min Temperature 34 °F 22 °F -12 °F (1994)
Degree Days  
Heating Degree Days 30 35  
Month to date heating degree days 1089 1033  
Since 1 July heating degree days 4455 4740  
Cooling Degree Days 0 0  
Month to date cooling degree days 0 0  
Year to date cooling degree days 0 0  
Moisture  
Dew Point 32 °F    
Average Humidity 93    
Maximum Humidity 96    
Minimum Humidity 89    
Precipitation  
Precipitation 0.22 in 0.08 in 0.81 in (1948)
Month to date precipitation 3.03 1.72  
Year to date precipitation 7.04 3.81  
Snow  
Snow 1.60 in 0.50 in 2.50 in (1897)
Month to date snowfall 32.8 14.4  
Since 1 July snowfall 57.3 64.4  
Snow Depth 7.00 in    
Sea Level Pressure  
Sea Level Pressure 29.54 in    
Wind  
Wind Speed 7 mph (NNE)    
Max Wind Speed 22 mph    
Max Gust Speed 28 mph    
Visibility 4 miles    
Events Snow    
T = Trace of Precipitation, MM = Missing Value Source: NWS Daily Summary

Daily Weather History Graph

Daily Weather History Graph

Search for Another Location

Airport or City:

Trip Planner

Search our weather history database for the weather conditions in past years. The results will help you decide how hot, cold, wet, or windy it might be!

Date:

Astronomy

Feb. 27, 2013 Rise Set
Actual Time 7:20 AM EST 6:29 PM EST
Civil Twilight 6:52 AM EST 6:57 PM EST
Nautical Twilight 6:19 AM EST 7:30 PM EST
Astronomical Twilight 5:46 AM EST 8:03 PM EST
Moon 8:54 PM EST (2/27) 7:51 AM EST (2/27)
Length of Visible Light 12h 05m
Length of Day
11h 08m
Waning Gibbous, 96% of the Moon is Illuminated
Feb 27
Waning Gibbous
Mar 4
Last Quarter
Mar 11
New
Mar 19
First Quarter
Mar 27
Full

Hourly Weather History & Observations

Time (EST) Temp. Windchill Dew Point Humidity Pressure Visibility Wind Dir Wind Speed Gust Speed Precip Events Conditions
12:07 AM 33.8 °F 23.5 °F 30.2 °F 87% 29.50 in 4.0 mi NE 16.1 mph 25.3 mph 0.00 in Snow Light Snow
12:27 AM 33.8 °F 23.5 °F 30.2 °F 87% 29.50 in 2.5 mi NE 16.1 mph - 0.00 in Snow Light Snow
12:53 AM 34.0 °F 24.2 °F 30.9 °F 89% 29.52 in 2.5 mi ENE 15.0 mph - 0.00 in Snow Light Snow
1:20 AM 33.8 °F 23.9 °F 30.2 °F 87% 29.49 in 4.0 mi NE 15.0 mph - 0.01 in Snow Light Snow
1:53 AM 34.0 °F 25.0 °F 30.9 °F 89% 29.51 in 6.0 mi ENE 12.7 mph - 0.01 in   Overcast
2:53 AM 34.0 °F 25.5 °F 32.0 °F 92% 29.51 in 3.0 mi ENE 11.5 mph - 0.00 in Snow Light Snow
3:53 AM 34.0 °F 25.5 °F 32.0 °F 92% 29.49 in 5.0 mi NE 11.5 mph - 0.00 in   Overcast
4:50 AM 33.8 °F 26.4 °F 32.0 °F 93% 29.47 in 1.8 mi NE 9.2 mph - 0.01 in Snow Light Snow
4:53 AM 34.0 °F 26.6 °F 32.0 °F 92% 29.49 in 1.5 mi NE 9.2 mph - 0.01 in Snow Light Snow
5:21 AM 33.8 °F 27.0 °F 32.0 °F 93% 29.47 in 0.8 mi NE 8.1 mph - 0.03 in Snow Light Snow
5:53 AM 34.0 °F 26.6 °F 32.0 °F 92% 29.49 in 0.8 mi NE 9.2 mph - 0.08 in Snow Light Snow
6:17 AM 33.8 °F 27.7 °F 32.0 °F 93% 29.47 in 1.5 mi NE 6.9 mph - 0.02 in Snow Light Snow
6:53 AM 34.0 °F 27.2 °F 32.0 °F 92% 29.50 in 5.0 mi NE 8.1 mph - 0.03 in Snow Light Snow
7:53 AM 34.0 °F 27.2 °F 32.0 °F 92% 29.51 in 3.0 mi NE 8.1 mph - 0.00 in Snow Light Snow
8:53 AM 34.0 °F 29.8 °F 32.0 °F 92% 29.53 in 3.0 mi ENE 4.6 mph - 0.00 in Snow Light Snow
9:26 AM 33.8 °F 30.8 °F 32.0 °F 93% 29.51 in 1.8 mi ENE 3.5 mph - 0.00 in Snow Light Snow
9:53 AM 35.6 °F 32.8 °F 32.0 °F 87% 29.51 in 1.8 mi NE 3.5 mph - N/A Snow Light Snow
10:47 AM 35.6 °F 32.8 °F 32.0 °F 87% 29.52 in 2.0 mi NNE 3.5 mph - 0.01 in Snow Light Snow
10:53 AM 35.1 °F 32.2 °F 32.0 °F 89% 29.54 in 2.5 mi NE 3.5 mph - 0.01 in Snow Light Snow
11:00 AM 35.6 °F 32.8 °F 32.0 °F 87% 29.52 in 3.0 mi NE 3.5 mph - 0.00 in Snow Light Snow
11:53 AM 36.0 °F 31.1 °F 33.1 °F 89% 29.54 in 7.0 mi NE 5.8 mph - 0.00 in Snow Light Snow
12:53 PM 36.0 °F 31.1 °F 32.0 °F 86% 29.54 in 7.0 mi NE 5.8 mph - 0.00 in Snow Light Snow
1:21 PM 35.6 °F 31.7 °F 33.8 °F 93% 29.51 in 9.0 mi NE 4.6 mph - 0.00 in   Overcast
1:53 PM 36.0 °F 32.1 °F 32.0 °F 86% 29.54 in 9.0 mi NE 4.6 mph - 0.00 in   Overcast
2:53 PM 36.0 °F 30.3 °F 33.1 °F 89% 29.54 in 6.0 mi NE 6.9 mph - N/A   Overcast
3:51 PM 35.6 °F 32.8 °F 33.8 °F 93% 29.53 in 3.0 mi NNE 3.5 mph - 0.00 in Snow Light Snow
3:53 PM 35.1 °F 32.2 °F 33.1 °F 92% 29.55 in 3.0 mi NNE 3.5 mph - 0.00 in Snow Light Snow
4:50 PM 35.6 °F 32.8 °F 33.8 °F 93% 29.54 in 2.5 mi NE 3.5 mph - 0.02 in Snow Light Snow
4:53 PM 35.1 °F 31.0 °F 33.1 °F 92% 29.56 in 2.5 mi NE 4.6 mph - 0.02 in Snow Light Snow
5:06 PM 35.6 °F - 35.6 °F 100% 29.54 in 3.0 mi Calm Calm - 0.00 in Snow Light Snow
5:53 PM 35.1 °F 31.0 °F 34.0 °F 96% 29.57 in 4.0 mi NNE 4.6 mph - 0.00 in Snow Light Snow
6:53 PM 35.1 °F 30.1 °F 33.1 °F 92% 29.59 in 4.0 mi North 5.8 mph - 0.01 in Snow Light Snow
7:03 PM 33.8 °F 29.6 °F 32.0 °F 93% 29.57 in 4.0 mi NNW 4.6 mph - 0.00 in Snow Light Snow
7:10 PM 33.8 °F 28.6 °F 32.0 °F 93% 29.57 in 5.0 mi NNW 5.8 mph - 0.00 in Snow Light Snow
7:53 PM 34.0 °F 28.0 °F 32.0 °F 92% 29.60 in 5.0 mi North 6.9 mph - 0.01 in   Overcast
8:53 PM 35.6 °F 29.2 °F 32.0 °F 87% 29.58 in 7.0 mi North 8.1 mph - N/A   Overcast
9:53 PM 35.1 °F 29.3 °F 32.0 °F 89% 29.61 in 8.0 mi North 6.9 mph - N/A   Overcast
10:53 PM 35.1 °F 28.6 °F 32.0 °F 89% 29.62 in 7.0 mi North 8.1 mph - N/A   Overcast
11:33 PM 35.6 °F 28.6 °F 32.0 °F 87% 29.60 in 9.0 mi North 9.2 mph - N/A   Overcast
11:53 PM 35.1 °F 28.6 °F 32.0 °F 89% 29.62 in 9.0 mi North 8.1 mph - N/A   Overcast